This is the latest recevied weather packets stored in our database for station/object DB0RV-13. If no packets are shown the sender has not sent any weather packets the latest 10 day(s).
| Time | Temp. | Humidity | Pressure | Rain* | Wind** | Luminosity | Snow |
|---|---|---|---|---|---|---|---|
| 1777941601 | 10° C | 85% | 1011 hPa | - | - | - | - |
| 1777941302 | 10° C | 85% | 1010.9 hPa | - | - | - | - |
| 1777941002 | 9.44° C | 84% | 1011.1 hPa | - | - | - | - |
| 1777940701 | 10° C | 83% | 1010.9 hPa | - | - | - | - |
| 1777940402 | 10° C | 86% | 1011 hPa | - | - | - | - |
| 1777940102 | 10° C | 84% | 1011 hPa | - | - | - | - |
| 1777939801 | 10° C | 81% | 1011 hPa | - | - | - | - |
| 1777939502 | 10.56° C | 81% | 1011 hPa | - | - | - | - |
| 1777939202 | 10° C | 82% | 1010.9 hPa | - | - | - | - |
| 1777938901 | 10.56° C | 84% | 1011 hPa | - | - | - | - |
| 1777938602 | 10.56° C | 84% | 1011 hPa | - | - | - | - |
| 1777938302 | 11.11° C | 84% | 1011 hPa | - | - | - | - |
| 1777938001 | 11.11° C | 84% | 1011 hPa | - | - | - | - |
| 1777937702 | 11.11° C | 84% | 1011 hPa | - | - | - | - |
| 1777937402 | 11.11° C | 84% | 1011 hPa | - | - | - | - |
| 1777937101 | 11.11° C | 84% | 1011.2 hPa | - | - | - | - |
| 1777936802 | 11.11° C | 84% | 1011.3 hPa | - | - | - | - |
| 1777936502 | 11.11° C | 83% | 1011.3 hPa | - | - | - | - |
| 1777936201 | 11.11° C | 83% | 1011.2 hPa | - | - | - | - |
| 1777935902 | 11.11° C | 83% | 1011.2 hPa | - | - | - | - |
| 1777935602 | 10.56° C | 82% | 1011.3 hPa | - | - | - | - |
| 1777935301 | 11.11° C | 83% | 1011.4 hPa | - | - | - | - |
| 1777935002 | 11.11° C | 82% | 1011.4 hPa | - | - | - | - |
| 1777934702 | 11.11° C | 82% | 1011.5 hPa | - | - | - | - |
| 1777934401 | 11.11° C | 81% | 1011.5 hPa | - | - | - | - |
* Rain since midnight (hover to see other rain measurements)
** Current wind speed in m/s (hover to see current wind gust speed)